Dewpoint
26 22 19 19 19 19 18 16 15 14 14 13 14 10 12 22 23 23 23 26 29 30 33 35 36 36 36 36 36 35 35 35 35 34 34 34 33 33 33 32 32 33 33 35
22 20 21 22 22 20 17 16 15 15 18 18 15 15 14 21 22 23 23 25 29 32 33 35 36 36 36 35 35 34 34 35 34 34 34 34 34 33 32 32 31 32 32 33
20 21 22 21 18 18 17 15 16 16 18 17 15 14 15 17 21 23 24 27 30 32 33 34 35 35 35 34 34 34 34 34 34 34 33 33 33 32 31 31 30 31 32 31
20 19 18 17 17 17 15 19 19 18 16 14 15 12 11 11 11 26 25 29 29 31 33 34 35 35 34 33 33 33 34 33 33 33 33 32 31 30 30 31 31 31 32 30
18 17 18 19 17 18 17 22 20 21 17 17 15 12 11 19 25 28 27 28 29 31 33 34 34 34 35 34 32 32 33 33 32 32 32 31 31 30 30 30 30 30 31 30
20 21 21 20 20 19 21 19 20 20 18 15 16 13 16 31 32 28 28 28 29 31 32 32 33 33 33 30 29 31 32 32 31 31 31 30 29 28 27 27 27 28 29 29
17 15 19 20 18 20 17 19 19 19 19 16 17 13 25 33 32 30 29 28 29 31 31 32 32 31 30 27 27 29 30 31 30 29 29 28 27 27 26 26 27 27 27 27
14 14 11 15 16 15 17 19 20 15 17 15 12 12 30 34 32 31 31 30 29 30 30 31 30 31 29 28 29 29 29 29 28 28 28 27 26 25 24 24 25 26 26 26
18 15 14 14 15 18 16 16 20 21 20 16 16 29 32 33 32 32 31 30 33 33 29 29 29 31 31 29 29 29 30 29 27 26 27 27 26 26 25 25 23 25 26 23
16 13 18 15 14 15 17 17 15 22 13 13 17 18 24 31 32 34 34 33 33 31 30 30 31 31 30 29 27 28 29 29 25 25 26 26 27 28 28 27 24 24 24 24
15 17 16 16 14 16 21 20 20 19 23 17 15 19 32 34 35 35 34 34 34 32 31 31 29 30 30 29 25 24 27 24 26 27 27 27 27 27 29 29 26 25 24 24
26 22 19 18 19 22 20 22 21 21 16 25 23 20 33 35 37 37 35 35 34 33 30 29 29 29 28 29 27 25 26 27 26 28 30 29 28 26 29 29 28 25 23 23
24 22 17 14 18 23 19 20 23 24 26 22 15 18 36 36 35 39 37 36 35 33 30 26 27 26 26 27 26 30 29 28 28 29 27 28 28 24 22 29 27 24 21 20
27 21 19 14 19 23 20 20 21 24 19 20 21 23 28 29 32 34 37 37 36 34 31 28 25 24 23 24 29 30 31 31 28 27 26 22 26 28 25 26 26 25 22 20
25 21 22 23 24 23 22 21 22 22 24 21 18 22 23 24 26 29 35 37 37 35 33 28 26 26 26 27 28 28 29 29 31 29 26 25 26 25 24 23 22 22 20 19
26 21 24 14 25 26 25 26 25 24 24 23 22 22 26 27 29 38 37 37 36 35 33 30 28 26 28 27 25 25 27 28 28 29 27 25 24 23 23 21 20 19 18 17
27 26 24 20 26 26 22 24 26 25 24 23 22 24 27 28 35 38 37 37 36 34 31 29 29 27 24 25 25 28 27 27 24 24 25 24 23 22 21 20 19 17 18 18
27 26 26 22 23 14 21 27 26 24 24 24 24 32 33 34 36 37 39 36 35 33 30 29 28 27 24 24 27 27 26 25 23 24 23 23 23 22 21 20 19 19 19 19
29 27 23 19 20 21 21 21 24 23 22 30 30 35 36 35 34 34 37 36 34 33 30 29 27 26 24 24 23 22 22 23 22 23 23 24 23 22 22 21 20 20 21 21
26 28 24 22 21 17 23 28 34 32 24 32 33 36 34 33 27 30 35 33 32 30 28 26 24 23 23 23 23 21 22 22 22 24 24 24 24 23 23 23 23 23 23 22
26 26 25 24 23 26 28 27 32 21 21 32 33 35 34 31 32 34 32 29 29 26 22 21 19 19 19 22 22 22 22 22 24 24 25 24 24 24 24 23 23 23 25 23
23 25 25 26 25 22 31 33 27 29 35 33 32 35 35 35 34 32 29 27 24 21 20 18 19 19 21 22 22 22 22 24 24 24 24 24 24 23 24 23 24 24 23 22
27 34 31 30 27 32 36 35 39 38 35 31 35 37 35 34 32 30 27 25 23 22 20 20 20 19 21 22 22 22 22 22 23 23 23 22 23 24 23 22 21 21 21 21
33 36 32 31 34 36 38 39 38 37 32 33 37 36 35 34 31 29 27 26 25 23 22 21 21 19 20 22 23 22 22 22 23 21 21 22 22 21 21 20 19 19 18 18
31 32 33 34 36 37 38 40 39 39 34 35 36 36 35 34 32 29 28 25 23 21 20 20 21 20 20 21 22 22 22 22 21 21 21 20 21 19 18 17 16 17 14 18
31 31 32 33 37 38 38 39 40 38 33 35 34 34 34 33 32 31 29 24 22 20 19 19 20 20 18 20 20 21 22 21 21 20 19 20 19 18 18 17 15 16 17 19
Lifted_Index
7 6 5 5 6 7 7 6 6 5 5 4 4 5 5 5 4 4 4 5 6 6 6 6 7 7 8 9 10 10 11 11 12 12 12 12 12 12 13 13 14 14 15 16
7 6 6 6 7 7 7 6 6 6 5 4 4 4 4 4 4 4 4 4 5 6 6 6 6 6 7 8 9 10 11 11 12 12 12 12 12 13 13 14 14 14 15 15
7 6 6 6 6 6 6 6 6 6 5 4 4 3 3 4 4 4 4 4 5 5 6 5 5 5 6 7 8 9 10 11 13 13 13 13 13 13 14 14 14 14 14 15
7 7 7 6 6 6 5 5 5 5 5 4 4 3 3 4 4 4 4 4 5 5 6 6 5 4 5 7 8 9 10 11 13 13 13 13 13 13 14 14 14 14 14 14
7 7 7 6 6 5 5 5 5 5 5 4 4 3 4 4 4 4 3 3 4 5 5 5 5 5 6 7 8 8 9 11 12 13 13 13 12 13 13 14 14 14 14 14
7 7 6 6 5 5 5 5 5 4 4 3 3 3 4 4 4 3 3 2 3 3 4 4 4 4 6 7 7 8 9 10 12 13 13 13 12 12 13 13 13 14 14 14
5 6 5 5 5 4 4 4 3 2 2 2 2 3 3 3 3 3 2 2 2 2 3 3 3 4 5 6 7 8 9 11 12 13 13 13 13 13 13 13 13 14 14 15
4 4 5 5 4 4 3 3 2 1 1 2 2 2 2 2 2 2 2 2 2 2 2 2 3 3 5 6 7 8 10 12 13 13 14 14 14 14 14 14 14 14 15 15
4 4 4 4 3 3 2 2 2 1 1 2 2 2 2 1 1 1 1 1 1 1 2 2 2 3 4 6 7 9 11 13 14 14 14 14 15 15 15 15 15 15 15 16
4 4 4 4 3 2 2 2 1 1 1 1 2 2 1 1 0 0 0 1 1 1 1 2 2 3 4 6 7 10 12 13 14 14 14 15 15 15 15 15 15 16 16 16
4 4 4 3 2 2 1 1 1 0 0 1 1 1 1 0 -0 -0 0 0 0 0 1 1 2 3 4 6 8 11 13 14 14 15 15 15 16 16 15 15 15 16 17 17
4 4 4 4 3 2 1 1 1 0 1 1 1 1 0 -0 -0 -0 0 0 -0 -0 0 1 2 3 4 6 8 11 13 14 15 15 16 15 15 15 15 15 16 16 17 17
4 4 4 4 3 2 2 1 1 1 1 1 1 1 0 0 0 -0 -0 -0 -1 -0 -0 0 1 2 4 6 8 11 13 14 15 16 16 15 15 15 15 15 16 17 17 17
4 4 4 3 3 3 2 2 1 1 1 1 1 1 1 1 1 1 0 -1 -1 -1 -0 -0 1 2 4 6 9 11 13 15 16 16 16 15 15 15 15 15 16 16 17 17
4 4 3 3 3 3 3 2 2 1 1 1 2 2 2 2 2 1 1 -0 -1 -0 -0 0 1 2 4 7 9 11 13 15 16 16 15 15 15 15 15 15 16 16 16 16
3 3 3 3 3 3 3 2 2 2 1 2 2 2 2 2 2 1 1 -0 -0 -0 0 0 1 2 4 7 9 11 14 16 16 16 16 16 15 15 15 16 16 15 15 16
2 2 2 2 2 2 2 2 2 2 2 2 2 2 2 1 1 1 0 -0 0 0 0 1 2 3 5 7 10 13 15 16 16 16 16 16 16 15 15 15 15 15 15 15
2 2 2 2 2 2 2 2 2 2 2 2 2 1 1 0 0 0 0 0 0 0 1 2 3 5 7 9 12 14 16 16 16 16 16 16 16 15 15 14 14 14 14 14
1 2 2 2 2 2 2 2 2 2 2 1 1 1 0 0 0 1 0 0 0 1 2 3 5 7 9 11 14 15 16 16 16 16 16 16 16 15 14 13 13 13 14 14
1 2 2 2 2 2 2 1 1 1 1 1 0 0 0 0 1 1 1 1 1 2 4 5 7 8 10 13 15 16 16 16 16 16 16 16 16 15 14 14 14 14 14 14
1 1 2 2 2 1 1 1 1 1 1 0 0 0 0 1 1 2 2 2 3 4 5 6 8 9 11 14 15 16 16 16 17 17 17 17 16 16 15 14 14 14 14 14
1 1 1 1 1 1 1 1 0 0 0 0 0 0 1 1 2 2 3 3 4 5 6 7 9 10 12 14 15 16 16 17 17 17 17 17 17 16 16 15 14 14 14 14
1 1 1 1 1 1 1 0 0 0 0 0 0 1 1 2 2 3 3 4 5 6 7 8 10 11 13 15 16 16 16 17 17 17 17 17 17 16 16 15 15 14 14 14
1 1 1 1 1 1 0 0 0 0 0 0 1 1 1 2 2 3 4 5 6 6 8 9 10 11 13 14 16 16 16 16 16 16 16 16 16 16 16 15 15 15 15 14
1 2 1 1 1 1 1 0 0 0 1 1 1 1 1 2 3 4 5 6 6 7 8 10 11 12 13 14 15 16 16 16 16 16 16 16 16 16 15 15 15 15 15 15
2 1 1 1 1 1 1 0 0 0 1 1 1 1 2 2 3 4 5 6 6 7 9 10 11 12 13 14 15 15 15 15 15 16 16 16 15 15 15 15 15 16 16 16